Location: Bathurst
(33.4193°S, 149.5775°E)
Time: 09:12:34
(UTC+10:00)

Vanguard 1 Rocket - Pass Details

Date: 18 June 2021
Orbit: 650 x 4226 km, 34.3° (Epoch: 02 August)

Event Time Altitude Azimuth Distance (km) Brightness Sun altitude
Rises 16:20:39 0° 263° (W) 3,859 11.5 6.4°
Reaches altitude 10° 16:24:48 10° 284° (WNW) 2,463 11.3 5.7°
Maximum altitude 16:27:53 15° 320° (NW) 1,879 10.7 5.1°
Drops below altitude 10° 16:30:34 10° 357° (N) 2,083 9.8 4.7°
Sets 16:33:37 0° 22° (NNE) 2,949 10.2 4.1°
